TRS832 KATL-MMCZ

Flight info

Callsign TRS832
Flight time N/A
Altitude 36000
Route BANNG3 LUCKK DCT SZW DCT CIGAR M219 NAVVL L465 SHARQ UM463 WALKY DCT EMOSA EMOSA2A
Aircraft B737/M-SDE2E3FGHIRWXY/LB1

Departure

Time N/A
Airport Hartsfield Jackson Atlanta International Airport (KATL)

Arrival

Time 2026-05-09 03:11
Airport Cozumel International Airport (MMCZ)
Time Latitude Longitude Altitude Speed Heading
2026-05-09 01:35 30.54321 -84.37481 36045 ft 435 kts 194°
2026-05-09 01:35 30.51326 -84.37823 36052 ft 431 kts 197°
2026-05-09 01:36 30.45389 -84.38695 36036 ft 429 kts 197°
2026-05-09 01:36 30.39468 -84.39581 36040 ft 429 kts 197°
2026-05-09 01:37 30.33540 -84.40425 36038 ft 429 kts 197°
2026-05-09 01:37 30.27632 -84.41241 35977 ft 429 kts 197°
2026-05-09 01:38 30.21708 -84.42049 36022 ft 428 kts 197°
2026-05-09 01:38 30.15797 -84.42855 36021 ft 427 kts 197°
2026-05-09 01:39 30.09896 -84.43661 36034 ft 427 kts 197°
2026-05-09 01:39 30.03992 -84.44467 36024 ft 427 kts 197°
2026-05-09 01:40 29.98096 -84.45270 35999 ft 427 kts 198°
2026-05-09 01:40 29.92194 -84.46073 36016 ft 428 kts 198°
2026-05-09 01:41 29.86307 -84.46874 36026 ft 429 kts 198°
2026-05-09 01:41 29.80363 -84.47681 36024 ft 431 kts 198°
2026-05-09 01:42 29.74396 -84.48490 36023 ft 432 kts 197°
2026-05-09 01:42 29.68415 -84.49299 36008 ft 433 kts 197°
2026-05-09 01:43 29.62416 -84.50109 36013 ft 434 kts 198°
2026-05-09 01:43 29.56413 -84.50919 36016 ft 434 kts 197°
2026-05-09 01:44 29.50444 -84.51724 36012 ft 435 kts 197°
2026-05-09 01:44 29.44436 -84.52532 36014 ft 435 kts 197°
2026-05-09 01:45 29.38429 -84.53339 36008 ft 433 kts 197°
2026-05-09 01:45 29.32441 -84.54143 36011 ft 433 kts 197°
2026-05-09 01:46 29.26449 -84.54948 36013 ft 433 kts 197°
2026-05-09 01:46 29.20461 -84.55752 36017 ft 433 kts 197°
2026-05-09 01:47 29.14473 -84.56553 36016 ft 433 kts 197°
2026-05-09 01:47 29.08519 -84.57350 36015 ft 433 kts 197°
2026-05-09 01:48 29.02524 -84.58152 36027 ft 434 kts 197°
2026-05-09 01:48 28.96509 -84.58955 36018 ft 436 kts 197°
2026-05-09 01:49 28.90478 -84.59759 36016 ft 437 kts 197°
2026-05-09 01:49 28.84428 -84.60565 35988 ft 438 kts 197°
2026-05-09 01:50 28.78368 -84.61369 36009 ft 438 kts 197°
2026-05-09 01:50 28.72302 -84.62175 36019 ft 439 kts 197°
2026-05-09 01:51 28.66253 -84.62978 36014 ft 440 kts 197°
2026-05-09 01:51 28.60159 -84.63785 36014 ft 441 kts 197°
2026-05-09 01:52 28.54060 -84.64592 35989 ft 441 kts 196°
2026-05-09 01:52 28.47966 -84.65397 36006 ft 441 kts 196°
2026-05-09 01:53 28.41869 -84.66202 36007 ft 441 kts 196°
2026-05-09 01:53 28.36801 -84.66870 36003 ft 441 kts 196°
2026-05-09 01:54 28.29713 -84.67804 36004 ft 441 kts 196°
2026-05-09 01:54 28.24602 -84.68477 35988 ft 441 kts 196°
2026-05-09 01:55 28.18511 -84.69277 36002 ft 441 kts 196°
2026-05-09 01:55 28.12420 -84.70078 36010 ft 441 kts 196°
2026-05-09 01:56 28.06343 -84.70875 36009 ft 442 kts 196°
2026-05-09 01:56 28.00222 -84.71677 36008 ft 443 kts 196°
2026-05-09 01:57 27.94098 -84.72478 35992 ft 443 kts 195°
2026-05-09 01:57 27.87984 -84.73277 36005 ft 443 kts 195°
2026-05-09 01:58 27.81850 -84.74078 36010 ft 443 kts 195°
2026-05-09 01:58 27.75713 -84.74878 36007 ft 444 kts 195°
2026-05-09 01:59 27.69580 -84.75677 36007 ft 444 kts 195°
2026-05-09 01:59 27.63480 -84.76471 36010 ft 444 kts 195°
2026-05-09 02:00 27.57336 -84.77269 36008 ft 444 kts 195°
2026-05-09 02:00 27.51203 -84.78069 36010 ft 443 kts 197°
2026-05-09 02:01 27.48204 -84.78725 36005 ft 432 kts 205°
2026-05-09 02:01 27.45386 -84.79826 36019 ft 427 kts 209°
2026-05-09 02:01 27.39828 -84.82176 36005 ft 427 kts 209°
2026-05-09 02:02 27.34306 -84.84502 36001 ft 426 kts 208°
2026-05-09 02:02 27.28736 -84.86812 36002 ft 427 kts 208°
2026-05-09 02:03 27.23150 -84.89112 36009 ft 427 kts 208°
2026-05-09 02:03 27.17554 -84.91408 36007 ft 428 kts 208°
2026-05-09 02:04 27.11952 -84.93699 36004 ft 428 kts 208°
2026-05-09 02:04 27.06348 -84.95989 35987 ft 428 kts 208°
2026-05-09 02:05 27.00781 -84.98267 35996 ft 429 kts 208°
2026-05-09 02:05 26.95181 -85.00561 35901 ft 425 kts 208°
2026-05-09 02:06 26.89639 -85.02824 35976 ft 425 kts 205°
2026-05-09 02:07 26.81284 -85.06240 37259 ft 428 kts 206°
2026-05-09 02:07 26.78478 -85.07383 35889 ft 428 kts 208°
2026-05-09 02:07 26.75676 -85.08523 35943 ft 430 kts 207°
2026-05-09 02:08 26.69996 -85.10838 35977 ft 437 kts 207°
2026-05-09 02:08 26.64316 -85.13146 35973 ft 437 kts 207°
2026-05-09 02:09 26.58609 -85.15461 35975 ft 436 kts 207°
2026-05-09 02:09 26.52898 -85.17778 35978 ft 436 kts 207°
2026-05-09 02:10 26.47207 -85.20088 35958 ft 435 kts 207°
2026-05-09 02:10 26.41518 -85.22395 35973 ft 434 kts 207°
2026-05-09 02:11 26.35614 -85.24104 35972 ft 447 kts 193°
2026-05-09 02:11 26.29439 -85.24714 35975 ft 449 kts 192°
2026-05-09 02:12 26.23223 -85.25295 35974 ft 448 kts 192°
2026-05-09 02:12 26.17013 -85.25929 35954 ft 448 kts 192°
2026-05-09 02:13 26.10769 -85.26586 35971 ft 447 kts 192°
2026-05-09 02:13 26.04570 -85.27236 35972 ft 448 kts 192°
2026-05-09 02:14 25.98368 -85.27873 35975 ft 448 kts 192°
2026-05-09 02:14 25.92160 -85.28517 35969 ft 448 kts 192°
2026-05-09 02:15 25.85954 -85.29153 35961 ft 448 kts 192°
2026-05-09 02:15 25.79737 -85.29794 35970 ft 448 kts 192°
2026-05-09 02:16 25.73560 -85.30432 35970 ft 449 kts 192°
2026-05-09 02:16 25.67302 -85.31080 35966 ft 449 kts 192°
2026-05-09 02:17 25.61114 -85.31722 35975 ft 449 kts 192°
2026-05-09 02:17 25.54873 -85.32367 35948 ft 450 kts 192°
2026-05-09 02:18 25.48635 -85.33009 35962 ft 450 kts 192°
2026-05-09 02:18 25.42385 -85.33650 35972 ft 451 kts 192°
2026-05-09 02:19 25.36156 -85.34401 35964 ft 446 kts 198°
2026-05-09 02:19 25.30437 -85.36689 35964 ft 432 kts 215°
2026-05-09 02:20 25.25263 -85.40033 35953 ft 431 kts 216°
2026-05-09 02:20 25.20078 -85.43378 35963 ft 431 kts 216°
2026-05-09 02:21 25.14900 -85.46654 35967 ft 432 kts 215°
2026-05-09 02:21 25.09334 -85.49303 35972 ft 443 kts 200°
2026-05-09 02:22 25.03139 -85.50144 35975 ft 455 kts 186°
2026-05-09 02:22 24.96785 -85.50104 35969 ft 457 kts 185°
2026-05-09 02:23 24.90434 -85.50028 35958 ft 455 kts 185°
2026-05-09 02:23 24.84102 -85.49997 35963 ft 454 kts 185°
2026-05-09 02:24 24.77818 -85.49994 35969 ft 454 kts 185°
2026-05-09 02:24 24.71496 -85.49996 35966 ft 453 kts 185°
2026-05-09 02:25 24.65185 -85.49998 35967 ft 453 kts 185°
2026-05-09 02:25 24.58879 -85.49999 35972 ft 453 kts 185°
2026-05-09 02:26 24.52585 -85.49997 35966 ft 452 kts 185°
2026-05-09 02:26 24.46330 -85.49988 35970 ft 452 kts 185°
2026-05-09 02:27 24.40044 -85.49994 35968 ft 451 kts 185°
2026-05-09 02:27 24.33721 -85.49994 35967 ft 451 kts 186°
2026-05-09 02:28 24.27485 -85.49999 35961 ft 451 kts 185°
2026-05-09 02:28 24.21204 -85.50000 35969 ft 451 kts 185°
2026-05-09 02:29 24.14922 -85.50000 35968 ft 451 kts 185°
2026-05-09 02:29 24.08642 -85.49994 35967 ft 451 kts 185°
2026-05-09 02:30 24.02358 -85.49992 35962 ft 451 kts 185°
2026-05-09 02:30 23.96082 -85.50093 35960 ft 450 kts 187°
2026-05-09 02:31 23.89830 -85.50422 35966 ft 450 kts 187°
2026-05-09 02:31 23.83572 -85.50767 35965 ft 450 kts 187°
2026-05-09 02:32 23.77346 -85.51086 35964 ft 451 kts 187°
2026-05-09 02:32 23.71075 -85.51386 35965 ft 451 kts 187°
2026-05-09 02:33 23.64796 -85.51683 35952 ft 452 kts 187°
2026-05-09 02:33 23.58510 -85.51981 35963 ft 452 kts 187°
2026-05-09 02:34 23.52220 -85.52280 35965 ft 453 kts 187°
2026-05-09 02:34 23.45922 -85.52581 35965 ft 453 kts 187°
2026-05-09 02:35 23.39617 -85.52890 35964 ft 453 kts 187°
2026-05-09 02:35 23.33305 -85.53201 35953 ft 454 kts 186°
2026-05-09 02:36 23.26997 -85.53512 35963 ft 454 kts 187°
2026-05-09 02:36 23.20686 -85.53822 35962 ft 454 kts 186°
2026-05-09 02:37 23.14363 -85.54131 35962 ft 454 kts 187°
2026-05-09 02:37 23.08042 -85.54440 35962 ft 455 kts 186°
2026-05-09 02:38 23.01762 -85.54747 35950 ft 455 kts 186°
2026-05-09 02:38 22.95440 -85.55056 35960 ft 455 kts 186°
2026-05-09 02:39 22.89123 -85.55365 35956 ft 455 kts 186°
2026-05-09 02:39 22.82800 -85.55673 35960 ft 455 kts 186°
2026-05-09 02:40 22.76475 -85.55977 35958 ft 455 kts 186°
2026-05-09 02:40 22.71222 -85.56230 35947 ft 455 kts 186°
2026-05-09 02:41 22.64901 -85.56533 35957 ft 454 kts 186°
2026-05-09 02:41 22.58581 -85.56837 35955 ft 454 kts 186°
2026-05-09 02:42 22.52266 -85.57139 35956 ft 454 kts 186°
2026-05-09 02:42 22.45945 -85.57426 35956 ft 454 kts 185°
2026-05-09 02:43 22.39625 -85.57707 35944 ft 454 kts 185°
2026-05-09 02:43 22.33353 -85.57989 35951 ft 454 kts 185°
2026-05-09 02:44 22.27056 -85.58409 35943 ft 451 kts 193°
2026-05-09 02:44 22.21233 -85.60662 35947 ft 443 kts 213°
2026-05-09 02:45 22.16200 -85.64456 35953 ft 441 kts 219°
2026-05-09 02:45 22.11261 -85.68381 35953 ft 441 kts 219°
2026-05-09 02:46 22.06327 -85.72244 35941 ft 441 kts 218°
2026-05-09 02:46 22.01306 -85.76132 35954 ft 442 kts 218°
2026-05-09 02:47 21.96378 -85.79935 35930 ft 428 kts 218°
2026-05-09 02:47 21.93999 -85.81769 35863 ft 415 kts 218°
2026-05-09 02:47 21.91636 -85.83594 35144 ft 420 kts 218°
2026-05-09 02:47 21.89262 -85.85428 34594 ft 423 kts 218°
2026-05-09 02:48 21.86819 -85.87317 34030 ft 441 kts 218°
2026-05-09 02:48 21.84306 -85.89257 33383 ft 446 kts 218°
2026-05-09 02:48 21.81783 -85.91195 32740 ft 444 kts 218°
2026-05-09 02:48 21.79245 -85.93090 32097 ft 443 kts 217°
2026-05-09 02:49 21.76703 -85.94949 31475 ft 440 kts 217°
2026-05-09 02:49 21.74172 -85.96789 30866 ft 438 kts 217°
2026-05-09 02:49 21.71657 -85.98619 30267 ft 435 kts 217°
2026-05-09 02:49 21.69163 -86.00440 29620 ft 432 kts 217°
2026-05-09 02:50 21.66688 -86.02251 28939 ft 429 kts 217°
2026-05-09 02:50 21.64231 -86.04051 28270 ft 425 kts 217°
2026-05-09 02:50 21.61827 -86.05813 27627 ft 422 kts 217°
2026-05-09 02:50 21.59412 -86.07583 26991 ft 418 kts 216°
2026-05-09 02:51 21.57015 -86.09338 26365 ft 415 kts 216°
2026-05-09 02:51 21.54637 -86.11078 25756 ft 411 kts 216°
2026-05-09 02:51 21.52292 -86.12808 25159 ft 408 kts 218°
2026-05-09 02:51 21.50278 -86.14906 24554 ft 402 kts 233°
2026-05-09 02:52 21.48651 -86.17325 24005 ft 398 kts 235°
2026-05-09 02:52 21.47067 -86.19750 23438 ft 395 kts 235°
2026-05-09 02:52 21.45500 -86.22149 22820 ft 391 kts 234°
2026-05-09 02:52 21.44082 -86.24302 22266 ft 387 kts 234°
2026-05-09 02:53 21.42526 -86.26644 21682 ft 384 kts 233°
2026-05-09 02:53 21.40975 -86.28964 21124 ft 379 kts 233°
2026-05-09 02:53 21.39441 -86.31250 20601 ft 375 kts 233°
2026-05-09 02:53 21.37924 -86.33506 20088 ft 371 kts 233°
2026-05-09 02:54 21.36419 -86.35741 19569 ft 368 kts 233°
2026-05-09 02:54 21.34926 -86.37958 19074 ft 365 kts 232°
2026-05-09 02:54 21.33447 -86.40155 18585 ft 362 kts 232°
2026-05-09 02:54 21.31976 -86.42338 18075 ft 360 kts 231°
2026-05-09 02:55 21.30515 -86.44505 17525 ft 357 kts 231°
2026-05-09 02:55 21.29064 -86.46658 16985 ft 355 kts 232°
2026-05-09 02:55 21.27626 -86.48790 16562 ft 350 kts 231°
2026-05-09 02:55 21.26214 -86.50880 16221 ft 342 kts 231°
2026-05-09 02:56 21.24834 -86.52924 15949 ft 334 kts 231°
2026-05-09 02:56 21.23495 -86.54904 15687 ft 331 kts 231°
2026-05-09 02:56 21.22146 -86.56898 15438 ft 330 kts 231°
2026-05-09 02:56 21.20798 -86.58890 15179 ft 330 kts 231°
2026-05-09 02:57 21.19448 -86.60885 14939 ft 332 kts 231°
2026-05-09 02:57 21.18071 -86.62917 14692 ft 343 kts 231°
2026-05-09 02:57 21.16660 -86.65000 14391 ft 348 kts 231°
2026-05-09 02:57 21.15233 -86.67107 14101 ft 349 kts 232°
2026-05-09 02:58 21.13809 -86.69211 13804 ft 348 kts 231°
2026-05-09 02:58 21.12396 -86.71298 13481 ft 345 kts 231°
2026-05-09 02:58 21.10992 -86.73370 13149 ft 342 kts 232°
2026-05-09 02:58 21.09598 -86.75427 12830 ft 338 kts 230°
2026-05-09 02:59 21.08222 -86.77456 12506 ft 335 kts 231°
2026-05-09 02:59 21.06860 -86.79466 12182 ft 333 kts 232°
2026-05-09 02:59 21.05497 -86.81474 11913 ft 334 kts 230°
2026-05-09 02:59 21.04142 -86.83460 11574 ft 336 kts 232°
2026-05-09 03:00 21.02752 -86.85406 11236 ft 320 kts 224°
2026-05-09 03:00 21.01031 -86.86775 10933 ft 300 kts 207°
2026-05-09 03:00 20.99221 -86.87825 10592 ft 294 kts 205°
2026-05-09 03:00 20.97398 -86.88830 10242 ft 294 kts 205°
2026-05-09 03:01 20.95573 -86.89831 9906 ft 294 kts 205°
2026-05-09 03:01 20.93756 -86.90831 9563 ft 293 kts 204°
2026-05-09 03:01 20.91948 -86.91834 9195 ft 292 kts 206°
2026-05-09 03:01 20.90146 -86.92840 8822 ft 291 kts 204°
2026-05-09 03:02 20.88359 -86.93844 8458 ft 288 kts 203°
2026-05-09 03:02 20.86596 -86.94830 8122 ft 284 kts 205°
2026-05-09 03:02 20.84872 -86.95795 7789 ft 283 kts 205°
2026-05-09 03:02 20.83134 -86.96771 7459 ft 281 kts 205°
2026-05-09 03:03 20.81411 -86.97740 7131 ft 279 kts 205°
2026-05-09 03:03 20.79696 -86.98703 6804 ft 277 kts 205°
2026-05-09 03:03 20.77992 -86.99660 6481 ft 276 kts 205°
2026-05-09 03:03 20.76294 -87.00613 6148 ft 275 kts 205°
2026-05-09 03:04 20.74608 -87.01563 5815 ft 273 kts 205°
2026-05-09 03:04 20.72932 -87.02505 5471 ft 272 kts 204°
2026-05-09 03:04 20.71264 -87.03442 5115 ft 270 kts 204°
2026-05-09 03:04 20.69610 -87.04370 4767 ft 267 kts 204°
2026-05-09 03:05 20.67972 -87.05288 4388 ft 263 kts 204°
2026-05-09 03:05 20.66383 -87.06176 4067 ft 252 kts 202°
2026-05-09 03:05 20.64842 -87.06974 3758 ft 241 kts 200°
2026-05-09 03:05 20.63360 -87.07721 3485 ft 230 kts 200°
2026-05-09 03:06 20.61943 -87.08434 3217 ft 221 kts 199°
2026-05-09 03:06 20.60508 -87.08782 2861 ft 207 kts 173°
2026-05-09 03:06 20.59197 -87.08366 2536 ft 195 kts 148°
2026-05-09 03:06 20.58171 -87.07441 2300 ft 192 kts 129°
2026-05-09 03:07 20.57524 -87.06218 2061 ft 191 kts 117°
2026-05-09 03:07 20.56959 -87.04963 1814 ft 181 kts 118°
2026-05-09 03:07 20.56423 -87.03768 1672 ft 173 kts 117°
2026-05-09 03:07 20.55927 -87.02660 1612 ft 158 kts 118°
2026-05-09 03:08 20.55490 -87.01685 1619 ft 133 kts 119°
2026-05-09 03:08 20.55097 -87.00816 1431 ft 124 kts 119°
2026-05-09 03:08 20.54734 -87.00013 1277 ft 118 kts 119°
2026-05-09 03:08 20.54374 -86.99218 1145 ft 121 kts 118°
2026-05-09 03:09 20.54009 -86.98414 986 ft 119 kts 116°
2026-05-09 03:09 20.53648 -86.97615 829 ft 124 kts 116°
2026-05-09 03:09 20.53265 -86.96768 671 ft 128 kts 116°
2026-05-09 03:09 20.52892 -86.95944 516 ft 123 kts 115°
2026-05-09 03:10 20.52522 -86.95125 358 ft 122 kts 114°
2026-05-09 03:10 20.52156 -86.94310 148 ft 121 kts 115°
2026-05-09 03:10 20.51779 -86.93480 24 ft 124 kts 116°
2026-05-09 03:10 20.51447 -86.92755 19 ft 89 kts 116°
2026-05-09 03:11 20.51241 -86.92300 16 ft 47 kts 116°
2026-05-09 03:11 20.51154 -86.92137 15 ft 4 kts 116°
2026-05-09 03:11 20.51154 -86.92132 15 ft 2 kts 91°
2026-05-09 03:11 20.51169 -86.92136 15 ft 4 kts 293°
2026-05-09 03:12 20.51178 -86.92162 15 ft 4 kts 294°
2026-05-09 03:12 20.51189 -86.92188 15 ft 4 kts 295°
2026-05-09 03:12 20.51200 -86.92212 15 ft 4 kts 295°
2026-05-09 03:12 20.51210 -86.92236 17 ft 4 kts 295°
2026-05-09 03:13 20.51327 -86.92490 18 ft 29 kts 296°
2026-05-09 03:13 20.51407 -86.92665 19 ft 22 kts 296°
2026-05-09 03:13 20.51435 -86.92768 19 ft 13 kts 248°
2026-05-09 03:14 20.51361 -86.92819 18 ft 13 kts 206°
2026-05-09 03:14 20.51284 -86.92859 18 ft 10 kts 205°
2026-05-09 03:14 20.51238 -86.92891 18 ft 6 kts 234°
2026-05-09 03:14 20.51243 -86.92935 17 ft 6 kts 295°
2026-05-09 03:15 20.51264 -86.92975 17 ft 6 kts 296°
2026-05-09 03:15 20.51281 -86.93013 17 ft 4 kts 295°
2026-05-09 03:15 20.51274 -86.93035 17 ft 2 kts 222°
2026-05-09 03:15 20.51263 -86.93042 18 ft 2 kts 211°
2026-05-09 03:16 20.51239 -86.93055 17 ft 3 kts 205°
2026-05-09 03:16 20.51227 -86.93061 17 ft 2 kts 205°
2026-05-09 03:16 20.51224 -86.93062 17 ft 0 kts 205°